sat.trackr.live / text

‹ back to catalog

STARLINK-33865

NORAD 64247 · 2025-119Q

PAYLOAD ACTIVE UNKNOWN

§ Identity

Operator
Country
US
Launch date
2025-06-03
Launch site
AFETR
Launch vehicle
Mass (kg)
RCS (m²)

Purposes: comms

External: N2YO · Heavens-Above · Gunter

§ Orbital elements

Epoch: 2026-09-20T02:08:53.859264Z

Period
94.27 min
Inclination
42.9987°
Eccentricity
0.0000595
Mean motion
15.27583333 rev/d
Perigee alt
482.6 km
Apogee alt
483.4 km
Semi-major
6,861.2 km
B*
3.1489e-4
RAAN
288.8899°
Arg perigee
256.8595°
Mean anomaly
103.2190°
Rev number
7,387

§ Raw data

STARLINK-338651 64247U 25119Q   26263.08951226  .00008414  00000+0  31489-3 0  99972 64247  42.9987 288.8899 0000595 256.8595 103.2190 15.27583333 73876

JSON: /api/v1/satellites/64247 · /tle

For live sub-satellite position, see the globe view (requires WebGL).

§ Visibility from observer

Set your observer location to see the next 7 days of passes ≥ 10°. The values pass through the URL so the page stays shareable.

No JS? Fill the form by hand. The geolocation button needs JavaScript.